Flagstaff, AZ

1:31 AM MST on January 20, 2018 (GMT -0700)
Flagstaff Pulliam

Weather History for KFLG - October, 2013

Change the Weather History Date:

Wednesday, October 9, 2013

  Actual Average Record
Temperature  
Mean Temperature 51 °F 49 °F  
Max Temperature 59 °F 65 °F 81 °F (1980)
Min Temperature 43 °F 34 °F 20 °F (1970)
Degree Days  
Heating Degree Days 14 16  
Month to date heating degree days 152 131  
Since 1 July heating degree days 446 448  
Cooling Degree Days 0 0  
Month to date cooling degree days 0 0  
Year to date cooling degree days 148 117  
Moisture  
Dew Point 29 °F    
Average Humidity 45    
Maximum Humidity 66    
Minimum Humidity 24    
Precipitation  
Precipitation 0.00 in 0.05 in 1.13 in (1960)
Month to date precipitation 0.00 0.52  
Year to date precipitation 20.93 17.09  
Snow  
Snow 0.00 in 0.10 in 2.00 in (1961)
Month to date snowfall 0.0 0.2  
Since 1 July snowfall T 0.2  
Snow Depth 0.00 in    
Sea Level Pressure  
Sea Level Pressure 29.66 in    
Wind  
Wind Speed 18 mph (SSW)    
Max Wind Speed 37 mph    
Max Gust Speed 48 mph    
Visibility 10 miles    
Events      
T = Trace of Precipitation, MM = Missing Value Source: NWS Daily Summary

Daily Weather History Graph

Daily Weather History Graph

Search for Another Location

Airport or City:

Trip Planner

Search our weather history database for the weather conditions in past years. The results will help you decide how hot, cold, wet, or windy it might be!

Date:

Astronomy

Oct. 09, 2013 Rise Set
Actual Time 6:28 AM MST 5:59 PM MST
Civil Twilight 6:02 AM MST 6:24 PM MST
Nautical Twilight 5:33 AM MST 6:53 PM MST
Astronomical Twilight 5:03 AM MST 7:23 PM MST
Moon 11:18 AM MST (10/9) 9:46 PM MST (10/9)
Length of Visible Light 12h 21m
Length of Day
11h 31m
Waxing Crescent, 26% of the Moon is Illuminated
Oct 9
Waxing Crescent
Oct 11
First Quarter
Oct 18
Full
Oct 26
Last Quarter
Nov 3
New

Hourly Weather History & Observations

Time (MST) Temp. Windchill Dew Point Humidity Pressure Visibility Wind Dir Wind Speed Gust Speed Precip Events Conditions
12:57 AM 48.0 °F - 28.0 °F 46% 29.70 in 10.0 mi WSW 6.9 mph - N/A   Clear
1:57 AM 45.0 °F 43.5 °F 28.0 °F 52% 29.71 in 10.0 mi WSW 3.5 mph - N/A   Clear
2:57 AM 44.1 °F 40.1 °F 28.0 °F 53% 29.69 in 10.0 mi SW 6.9 mph - N/A   Clear
3:57 AM 46.9 °F - 27.0 °F 46% 29.66 in 10.0 mi SSW 15.0 mph 26.5 mph N/A   Clear
4:57 AM 46.0 °F 39.6 °F 26.1 °F 46% 29.66 in 10.0 mi SSW 15.0 mph 21.9 mph N/A   Clear
6:57 AM 46.0 °F 38.3 °F 26.1 °F 46% 29.69 in 10.0 mi SSW 20.7 mph 28.8 mph N/A   Clear
7:57 AM 48.9 °F - 26.1 °F 41% 29.70 in 10.0 mi SSW 15.0 mph 27.6 mph N/A   Clear
8:57 AM 52.0 °F - 24.1 °F 34% 29.68 in 10.0 mi SSW 20.7 mph 41.4 mph N/A   Clear
9:57 AM 53.1 °F - 21.0 °F 29% 29.68 in 10.0 mi SSW 28.8 mph 36.8 mph N/A   Clear
10:57 AM 54.0 °F - 21.0 °F 28% 29.68 in 10.0 mi SSW 29.9 mph 42.6 mph N/A   Clear
11:57 AM 55.9 °F - 23.0 °F 28% 29.66 in 10.0 mi SSW 27.6 mph 43.7 mph N/A   Clear
12:57 PM 57.9 °F - 21.9 °F 25% 29.63 in 10.0 mi SSW 28.8 mph 41.4 mph N/A   Clear
1:57 PM 55.9 °F - 23.0 °F 28% 29.62 in 10.0 mi SSW 31.1 mph 42.6 mph N/A   Clear
2:57 PM 55.0 °F - 25.0 °F 31% 29.64 in 10.0 mi SSW 23.0 mph 39.1 mph N/A   Clear
3:57 PM 54.0 °F - 28.9 °F 38% 29.63 in 10.0 mi SSW 19.6 mph 29.9 mph N/A   Scattered Clouds
4:57 PM 52.0 °F - 35.1 °F 53% 29.64 in 10.0 mi South 16.1 mph 26.5 mph N/A   Partly Cloudy
5:57 PM 50.0 °F - 39.0 °F 66% 29.67 in 10.0 mi South 11.5 mph 20.7 mph N/A   Scattered Clouds
6:57 PM 48.9 °F - 37.9 °F 66% 29.65 in 10.0 mi SSW 9.2 mph 26.5 mph N/A   Mostly Cloudy
7:57 PM 48.9 °F - 37.9 °F 66% 29.65 in 10.0 mi SSW 17.3 mph 24.2 mph N/A   Mostly Cloudy
8:57 PM 46.9 °F - 36.0 °F 66% 29.65 in 10.0 mi SSW 10.4 mph - N/A   Overcast
9:57 PM 46.9 °F - 36.0 °F 66% 29.64 in 10.0 mi South 11.5 mph 16.1 mph N/A   Overcast
10:57 PM 46.0 °F 38.8 °F 35.1 °F 66% 29.64 in 10.0 mi South 18.4 mph 26.5 mph N/A   Overcast
11:57 PM 45.0 °F 37.4 °F 33.1 °F 63% 29.62 in 10.0 mi SSW 18.4 mph 25.3 mph N/A   Overcast